www.pogodaiklimat.ru

Погода и климат >> Архив погоды >> Россия >> Якутия >> Батагай


ПОГОДА в Батагае

  • Прогноз погоды в Батагае
  • Монитор погоды в Батагае

АРХИВ ПОГОДЫ в Батагае

Время (UTC), дата Ветер
(напр.,м/с)
 
Видим.   Явления Облачность Т
(С)
Тd
(С)
f
(%)
Тe
(С)
Тes
(С)
Комфортность P
(гПа)
Po
(гПа)
Тmin
(С)
Tmax
(С)
R
(мм)
R24
(мм)
S
(см)
06 17.07 С 3 1000 м слаб. ливневой дождь 10/10 90 м
[Cb cap]
+11.5 +10.3 92 +10 +10 1004.9 979.5
09 17.07 С 4 2000 м слаб. ливневой дождь 10/10 90 м
[Cb cap]
+11.7 +8.5 81 +10 +10 1003.9 978.5 +13.2 1
12 17.07 С 7-12
{12}
н/о н/о +12.3 +6.1 66 +10 +10 1003.7 978.4
15 17.07 С 9-14
{15}
н/о н/о +8.5 +4.0 73 +4 +4 1004.4 978.8
18 17.07 С 11-17
{18}
н/о н/о +5.6 +1.3 74 -1 -1 1005.3 979.4
21 17.07 С 10-16
{19}
20 км дым 10/8 570 м
[Cb cap Ac trans]
+5.0 +0.5 73 -1 -1 1007.2 981.1 +4.8
00 18.07 С 9-15
{19}
10 км дым 10/5 600 м
[Sc Ac trans]
+6.9 +1.2 67 +2 +2 1008.2 982.4
03 18.07 С 9-15
{17}
10 км дым 10/4 1000 м
[Sc Ac trans]
+8.8 +1.2 59 +4 +5 1009.1 983.3
06 18.07 С 8-15
{15}
2000 м мгла 10/3 1500 м
[Sc Ac trans]
+10.4 +0.7 51 +7 +7 1010.5 984.8
09 18.07 С 8-13
{15}
2000 м мгла 10/3 1500 м
[Sc Ac trans Ci fib]
+10.7 +0.8 50 +7 +8 1011.9 986.3 +11.5
12 18.07 С 7-10
{14}
н/о н/о +8.4 +0.4 57 +4 +4 1013.8 987.9
21 18.07 С 7 4000 м мгла 10/0
[Ac trans Ci fib]
+5.8 +2.4 79 +1 +1 1014.7 988.5 +4.5
00 19.07 СЗ 7-12
{14}
20 км дым 10/6 1350 м
[Cb cap Ci fib]
+9.2 +0.6 55 +6 +6 1014.5 988.6
03 19.07 С 8-13
{16}
20 км дым 10/6 1500 м
[Cb cap Ac trans Cs]
+10.8 -0.4 46 +8 +8 1014.5 988.7
06 19.07 С 8-13
{14}
10 км дым 10/4 1500 м
[Cb cap Ac trans Cs]
+12.9 -0.5 40 +10 +11 1014.4 988.9
09 19.07 С 6-12
{16}
10 км дым 10/4 1500 м
[Cb cap Ac trans Cs]
+13.8 +0.6 40 +12 +12 1015.2 989.7 +14.0
12 19.07 С 7-13
{13}
н/о н/о +10.8 +1.7 53 +8 +8 1017.1 991.3
15 19.07 С 7-11
{14}
н/о н/о +7.7 +3.1 73 +3 +3 1018.7 992.6
18 19.07 С 6
{13}
н/о н/о +6.3 +3.2 81 +2 +2 1019.7 993.5
21 19.07 С 6
{12}
н/о н/о +6.4 +2.1 74 +2 +2 1020.9 994.6 +5.8
00 20.07 С 3
{10}
н/о н/о +6.5 +1.8 72 +4 +4 1021.5 995.2
03 20.07 З 2 н/о н/о +9.5 +2.0 59 +8 +8 1020.7 994.7
06 20.07 СЗ 3 н/о н/о +14.3 +1.1 41 +14 +14 1018.5 993.0
09 20.07 З 2 н/о н/о +16.2 -0.5 32 +16 +16 1017.1 991.8 +16.3
12 20.07 Ю 2 н/о н/о +13.1 -0.6 39 +13 +13 1017.1 991.5
15 20.07 ЮЗ 1 н/о н/о +9.3 -1.1 48 +9 +9 1017.3 991.4
00 21.07 ЮЗ 5 н/о н/о +18.2 +3.0 36 +18 +18 1012.9 987.9
03 21.07 ЮВ 2
{10}
н/о н/о +14.4 +7.3 62 +14 +14 1012.4 987.1
06 21.07 ЮЗ 6 н/о н/о +21.4 +4.2 32 +22 +22 комфорт 1009.0 984.4
09 21.07 С 7-11
{11}
н/о н/о +18.5 +6.1 44 +18 +18 1011.2 986.3 +21.5
12 21.07 С 7-11
{14}
н/о н/о +11.1 +1.6 52 +8 +8 1016.0 990.3
15 21.07 С 3
{11}
н/о н/о +6.7 +0.9 66 +4 +4 1019.0 992.8
18 21.07 З 1 н/о н/о +4.5 +1.0 78 +3 +3 1021.2 994.7
21 21.07 СЗ 4 50 км 10/6 1300 м
[Sc Ac trans]
+6.8 +0.5 64 +4 +4 1022.1 995.8 +3.8
00 22.07 СВ 1 50 км 10/8 700 м
[Sc Ac trans]
+6.6 +0.5 65 +6 +7 1022.8 996.5
03 22.07 С 2 50 км 6/6 1050 м
[Sc]
+9.1 +0.1 53 +8 +12 1022.5 996.5
06 22.07 С 3 50 км 3/3 1500 м
[Cu hum]
+12.5 +0.2 43 +11 +16 1021.2 995.5
09 22.07 СВ 1 50 км ясно +14.0 -0.4 37 +15 +17 1020.5 994.9 +14.0
12 22.07 В 2 н/о н/о +10.7 +0.2 48 +10 +10 1020.4 994.5
15 22.07 штиль 0 н/о н/о +3.3 -0.2 78 +2 +2 1021.1 994.6
18 22.07 ЮВ 2 н/о н/о +1.6 -1.6 79 -2 -2 1021.1 994.3
21 22.07 штиль 0 1000 м мгла ясно +6.5 -0.9 59 +6 +9 1020.6 994.3 +0.5
00 23.07 В 2 2000 м мгла ясно +13.2 +0.3 41 +13 +20 1018.8 993.1
03 23.07 Ю 3 10 км дым 3/0
[Ci fib]
+18.0 -1.0 28 +18 +26 1015.7 990.6
06 23.07 Ю 3 10 км дым 8/0
[Ci fib]
+21.1 -1.0 23 +21 +26 комфорт 1013.2 988.4
09 23.07 штиль 0 10 км дым 10/0
[Ac trans Cs]
+21.2 0.0 24 +21 +23 комфорт 1011.4 986.7 +21.4
12 23.07 В 2 н/о н/о +17.1 -1.2 29 +18 +18 1011.0 985.9
15 23.07 ЮВ 3 н/о н/о +14.8 -1.6 32 +14 +14 1010.6 985.3
18 23.07 ЮВ 3 н/о н/о +12.5 -1.9 37 +11 +11 1010.1 984.6
21 23.07 ЮВ 2 200 м мгла ?/? +10.7 +0.5 49 +10 +10 1010.5 984.8 +9.8
00 24.07 ЮВ 2 500 м мгла 6/0
[Ac trans Ci fib]
+18.0 +2.5 35 +19 +24 1009.0 984.0
03 24.07 В 1 200 м мгла ?/? +22.4 +3.7 29 +22 +22 комфорт 1007.9 983.3

 

Местоположение метеостанции Батагай (Якутия, Россия): широта 67.65 долгота 134.60 высота над уровнем моря 214 м.

В архиве по умолчанию представлена погода в Батагае за последнюю неделю. Архивные данные за месяц целиком и за предыдущие месяцы, начиная с января 2011 года, Вы можете получить, выбрав интересующий диапазон дат из раскрывающегося списка и нажав кнопку "Ввод!".


*Определитесь, кто Вы:
робот инопланетянин человек

Внимание! Время в таблицах - всемирное. Для получения местного времени необходимо прибавить поправку, которая равна 10 ч.

Смотрите также архив погоды в соседних городах и на ближайших метеорологических станциях:

Погода в Верхоянске (Якутия, Россия) (52 км)
Погода в Усть-Чарках (Якутия, Россия) (128 км)
Погода в Екюччю (Якутия, Россия) (162 км)
Погода в Батагай-Алыте (Якутия, Россия) (178 км)
Погода в Усть-Куйге (Якутия, Россия) (264 км)
Погода в Иэме (Якутия, Россия) (267 км)
Погода в Депутатском (Якутия, Россия) (286 км)
Погода в Себян-Кюеле (Якутия, Россия) (332 км)
Погода в Юбилейной (Якутия, Россия) (353 км)
Погода в Усть-Моме (Якутия, Россия) (396 км)

Пояснения к столбцам:

Ветер - указаны скорость ветра в м/с - средняя за 10 мин, порывы в срок и между сроками (в фигурных скобках) и направление, откуда дует ветер: С - северный, СВ - северо-восточный, В - восточный, ЮВ - юго-восточный, Ю - южный, ЮЗ - юго-западный, З - западный, СЗ - северо-западный.
Видимость - горизонтальная дальность видимости в метрах или километрах. При видимости от 1 до 10 км при отсутствии осадков обычно наблюдается дымка, при ухудшении видимости до 1 км и менее - туман. В сухую погоду видимость может ухудшаться дымом, пылью или мглою.
Явления - указаны атмосферные явления, наблюдавшиеся в срок или в последний час перед сроком; фигурными скобками обозначены явления, наблюдавшиеся между сроками (за 1-3 часа до срока); квадратными скобками обозначены град или гололедные отложения с указанием их диаметра в мм.
Облачность - указаны через наклонную черту общая и нижняя облачность в баллах и высота нижней границы облаков в метрах; квадратными скобками обозначены формы облаков: Ci - перистые, Cs - перисто-слоистые, Cc - перисто-кучевые, Ac - высококучевые, As - высокослоистые, Sc - слоисто-кучевые, Ns - слоисто-дождевые, Cu - кучевые, Cb - кучево-дождевые. Подробнее классификацию облаков см. в Атласе облаков (PDF).
T - Температура воздуха - температура, измеренная на высоте 2 м над землей.
Td - Температура точки росы - температура, при понижении до которой содержащийся в воздухе водяной пар достигнет насыщения.
f - Относительная влажность воздуха - влажноcть воздуха, измеренная на высоте 2 м над землей.
Te - Эффективная температура - температура, которую ощущает одетый по сезону человек в тени. Характеристика душности погоды. При расчете учитывается влияние влажности воздуха и скорости ветра на теплоощущения человека.
Tes - Эффективная температура на солнце - температура, которую ощущает человек, с поправкой на солнечный нагрев. Характеристика знойности погоды. Зависит от высоты солнца над горизонтом, облачности и скорости ветра. Ночью, в пасмурную погоду, а также при ветре 12 м/с и более поправка равна нулю.
P - Атмосферное давление - приведенное к уровню моря атмосферное давление.
Po - Атмосферное давление - измеренное на уровне метеостанции атмосферное давление.
Tmin - Минимальная температура - минимум температуры воздуха на высоте 2 м над землей.
Tmax - Максимальная температура - максимум температуры воздуха на высоте 2 м над землей.
R - Количество осадков - Количество выпавших осадков за период времени, мм. При наведении курсора мыши на число - период времени, за который выпало указанное количество осадков.
R24 - Количество осадков - Количество выпавших осадков за 24 часа, мм.
S - Снежный покров - Высота снежного покрова, см. При наведении курсора мыши на число - состояние снежного покрова и степень покрытия местности в баллах.